Location: D.A.R.C. Observatory
(36.7133°N, 120.8553°W)
Time: 15:11:06
(UTC-08:00)

Daily predictions for brighter satellites

Satellite Brightness Start Highest point End
(mag) Time Altitude Azimuth Time Altitude Azimuth Time Altitude Azimuth
IDEFIX/ARIANE 42P 3.9 17:09:28 10° S 17:14:28 46° W 17:19:29 10° NNW
Meteor 1-28 Rocket 3.7 17:11:59 10° NNE 17:15:27 37° E 17:18:53 10° SSE
Cosmos 1862 3.6 17:11:35 10° N 17:15:36 74° W 17:19:37 10° S
Cosmos 1606 4.5 17:14:29 10° ESE 17:16:26 14° E 17:18:23 10° NE
CORIOLIS 4.5 17:11:30 10° SE 17:16:38 45° ENE 17:21:49 10° N
IRAS Rocket 4.3 17:12:46 10° SSE 17:18:21 88° ENE 17:23:54 10° NNW
AQUARIUS 4.3 17:17:35 10° SSE 17:21:58 55° ENE 17:26:21 10° N
Cosmos 2208 Rocket 4.2 17:16:48 10° NNW 17:22:01 81° WSW 17:27:17 10° SSE
BREEZE-M R/B 4.1 17:20:21 10° NNW 17:22:12 16° NNE 17:24:33 10° ENE
Cosmos 841 Rocket 4.5 17:18:23 10° N 17:22:45 26° ENE 17:27:05 10° ESE
USA 161 4.0 17:23:04 10° NW 17:23:43 11° WNW 17:24:23 10° W
Cosmos 1782 4.3 17:21:59 10° SE 17:24:46 18° E 17:27:33 10° NE
Landsat 4 4.3 17:22:12 10° NNE 17:25:44 37° E 17:29:16 10° SSE
Cosmos 2242 Rocket 3.8 17:22:44 10° S 17:27:17 80° W 17:31:51 10° N
Cosmos 1908 Rocket 4.4 17:24:25 10° NNE 17:28:09 27° ENE 17:31:50 10° SE
Cosmos 1733 Rocket 3.0 17:27:01 10° N 17:31:27 78° E 17:35:54 10° S
USA 234 3.5 17:25:09 10° NE 17:31:35 57° SE 17:37:58 10° SSW
Cosmos 2233 Rocket 4.0 17:25:46 10° S 17:31:57 64° E 17:38:06 10° NNE
Cosmos 972 Rocket 3.8 17:27:10 10° N 17:32:04 69° ENE 17:36:59 10° SSE
SPOT 3 Rocket 4.5 17:31:18 10° ESE 17:35:34 26° ENE 17:39:51 10° NNE
Sich 1 Rocket 4.4 17:32:09 10° NNE 17:35:57 28° ENE 17:39:47 10° SE
Lacrosse 5 4.2 17:34:42 10° NW 17:37:03 13° NNW 17:39:25 10° N
Cosmos 1862 Rocket 3.7 17:34:15 10° S 17:38:39 79° W 17:43:07 10° N
Cosmos 1340 4.4 17:40:21 10° SW 17:43:48 35° WNW 17:47:18 10° N
Cosmos 2082 Rocket 3.4 17:39:50 10° N 17:44:02 21° NE 17:47:57 11° ESE
CZ-4C R/B 4.3 17:40:52 10° N 17:44:50 15° NE 17:47:31 13° ENE
GENESIS II 4.3 17:41:09 10° NNW 17:44:59 51° ENE 17:48:46 10° SE
CSL-04 Rocket 4.1 17:39:52 10° S 17:45:06 66° WSW 17:50:24 10° NNW
Cosmos 405 Rocket 4.5 17:43:37 10° ESE 17:45:18 14° E 17:45:18 14° E
Cosmos 1437 3.9 17:45:33 10° SSW 17:48:36 44° W 17:51:40 10° N
Cosmos 972 4.5 17:45:52 10° N 17:50:44 50° ENE 17:55:28 10° SSE
CZ-3A R/B 4.1 17:42:04 10° NW 17:57:46 55° NNE 18:03:13 12° ESE
ERBS 2.4 17:54:35 10° NNW 17:57:54 53° NE 18:00:20 17° ESE
ERS-2 2.1 17:54:23 10° SSE 17:58:00 58° ENE 18:01:38 10° N
OAO 3 Copernicus 4.4 17:53:20 10° W 17:58:25 75° S 18:02:00 19° E
METEOR-M 4.1 17:54:10 10° SSE 17:59:25 63° ENE 18:04:41 10° N
Okean 1-7 3.4 17:57:19 10° SSE 18:01:26 43° E 18:05:36 10° NNE
Cosmos 304 Rocket 3.7 17:58:45 10° NNW 18:03:34 80° ENE 18:08:21 10° SSE
CZ-4 R/B 4.4 18:03:22 10° SSE 18:07:32 90° E 18:11:43 10° NNW
BREEZE M DEB (TANK) 4.3 18:05:52 10° W 18:07:39 16° SW 18:09:12 10° S
Thor Agena Rocket 4.4 18:11:18 26° E 18:12:12 27° E 18:16:31 10° SSE
Cosmos 1782 Rocket 3.6 18:08:17 10° N 18:12:30 49° E 18:16:43 10° SSE
CENTAUR R/B 4.2 18:08:51 10° W 18:14:03 28° NW 18:19:52 10° NNE
Meteor 1-14 Rocket 4.4 18:08:55 10° NNW 18:14:35 75° W 18:20:07 10° S
YAOGAN 1 2.9 18:11:16 10° S 18:15:33 67° WSW 18:19:53 10° NNW
BREEZE-M DEB (TANK) 3.1 18:08:14 10° WNW 18:15:34 65° SW 18:17:58 17° SE
COSMO-SKYMED 1 2.6 18:12:10 10° N 18:16:31 80° WNW 18:20:51 10° SSW
CZ-4 R/B 2.8 18:13:49 10° SSW 18:17:28 38° W 18:21:05 10° NNW
COSMOS 2455 4.3 18:15:40 10° WSW 18:21:05 34° NW 18:26:32 10° N
Cosmos 2221 Rocket 3.4 18:19:57 10° S 18:24:20 74° E 18:28:14 13° NNE
Cosmos 1072 Rocket 4.4 18:18:19 10° S 18:24:29 79° E 18:30:47 10° N
Cosmos 2034 Rocket 4.0 18:24:38 10° S 18:30:51 59° E 18:37:05 10° NNE
Cosmos 1763 Rocket 4.3 18:25:53 10° NNW 18:30:56 53° WSW 18:35:53 10° S
SL-27 R/B 2.2 18:29:07 10° NNW 18:32:28 90° ENE 18:32:48 70° SSE
ALOS 2.1 18:28:03 10° SSE 18:32:42 82° ENE 18:37:24 10° N
Nadezhda 4 Rocket 4.3 18:28:18 10° N 18:33:58 38° ENE 18:39:36 10° SE
Meteor 1-11 Rocket 4.1 18:28:41 10° N 18:34:13 41° ENE 18:35:58 33° ESE
FENGYUN 3A 3.5 18:29:30 10° SSE 18:34:54 81° ENE 18:40:20 10° N
Cosmos 2297 3.6 18:33:26 10° SSW 18:39:08 90° E 18:42:47 24° NNE
Cosmos 1633 3.1 18:37:23 10° NNW 18:40:59 58° W 18:44:34 10° S
Cosmos 1503 Rocket 4.2 18:38:42 10° SSW 18:43:58 72° WNW 18:47:38 20° N
Cosmos 1833 Rocket 2.6 18:38:53 10° NNW 18:44:29 65° ENE 18:46:55 34° SE
Cosmos 2278 Rocket 3.8 18:41:14 10° WSW 18:46:15 32° WNW 18:51:19 10° N
Okean 2 Rocket 3.0 18:44:27 10° N 18:49:00 84° E 18:53:31 10° S
Cosmos 1441 Rocket 4.2 18:46:35 10° S 18:49:08 38° S 18:49:08 38° S
Cosmos 968 Rocket 4.0 18:52:17 10° S 18:55:59 44° SSE 18:55:59 44° SSE
Cosmos 540 Rocket 3.6 18:57:50 10° NNW 19:03:01 74° WSW 19:06:27 21° S
Meteor 2-20 4.3 18:58:20 10° N 19:04:26 87° E 19:10:30 10° S
MOS 1-B Rocket 4.4 19:06:58 10° SSE 19:13:52 77° ENE 19:22:04 10° N
USA 234 4.2 19:11:31 27° NNE 19:14:23 41° NW 19:20:23 10° W
Cosmos 2082 Rocket 2.8 19:22:56 10° NNW 19:28:27 53° WSW 19:29:59 41° SSW
CZ-4C R/B 3.4 19:27:38 10° NNW 19:32:45 46° N 19:32:45 46° N
